Change the Weather History Date:

Saturday, March 22, 2014

  Actual Average (KTYR) Record (KTYR)
Temperature  
Mean Temperature 65 °F 58 °F  
Max Temperature 73 °F 68 °F 90 °F (1995)
Min Temperature 55 °F 48 °F 26 °F (1915)
Degree Days  
Heating Degree Days 0 8  
Month to date heating degree days 211  
Since 1 July heating degree days 2103  
Cooling Degree Days 0 1  
Month to date cooling degree days 10  
Year to date cooling degree days 22  
Growing Degree Days 15 (Base 50)    
Moisture  
Dew Point 60 °F    
Average Humidity 85    
Maximum Humidity 100    
Minimum Humidity 69    
Precipitation  
Precipitation 0.00 in 0.14 in 1.57 in (1912)
Month to date precipitation 3.03  
Year to date precipitation 9.90  
Snow  
Snow 0.00 in - - ()
Month to date snowfall  
Since 1 July snowfall  
Snow Depth -    
Sea Level Pressure  
Sea Level Pressure 29.99 in    
Wind  
Wind Speed 4 mph (WNW)    
Max Wind Speed 10 mph    
Max Gust Speed -    
Visibility 8 miles    
Events Fog    
T = Trace of Precipitation, MM = Missing Value Source: NWS Daily Summary

Daily Weather History Graph

Daily Weather History Graph

Search for Another Location

Airport or City:

Trip Planner

Search our weather history database for the weather conditions in past years. The results will help you decide how hot, cold, wet, or windy it might be!

Date:

Astronomy

Mar. 22, 2014 Rise Set
Actual Time 7:23 AM CDT 7:35 PM CDT
Civil Twilight 6:58 AM CDT 7:59 PM CDT
Nautical Twilight 6:29 AM CDT 8:28 PM CDT
Astronomical Twilight 6:00 AM CDT 8:57 PM CDT
Moon 12:40 AM CDT (3/22) 11:22 AM CDT (3/22)
Length of Visible Light 13h 01m
Length of Day
12h 11m
Waning Gibbous, 65% of the Moon is Illuminated
Mar 22
Waning Gibbous
Mar 23
Last Quarter
Mar 30
New
Apr 7
First Quarter
Apr 15
Full

Hourly Weather History & Observations

Time (CDT) Temp. Dew Point Humidity Pressure Visibility Wind Dir Wind Speed Gust Speed Precip Events Conditions
12:15 AM 66.2 °F 57.2 °F 73% 29.93 in 10.0 mi South 5.8 mph - N/A   Clear
12:35 AM 66.2 °F 59.0 °F 78% 29.93 in 10.0 mi South 6.9 mph - N/A   Clear
12:55 AM 66.2 °F 59.0 °F 78% 29.93 in 10.0 mi South 4.6 mph - N/A   Clear
1:15 AM 66.2 °F 59.0 °F 78% 29.93 in 9.0 mi South 4.6 mph - N/A   Clear
1:35 AM 64.4 °F 59.0 °F 83% 29.94 in 10.0 mi SSE 4.6 mph - N/A   Clear
1:55 AM 64.4 °F 59.0 °F 83% 29.94 in 9.0 mi SSE 3.5 mph - N/A   Clear
2:15 AM 64.4 °F 59.0 °F 83% 29.94 in 10.0 mi South 3.5 mph - N/A   Clear
2:35 AM 64.4 °F 59.0 °F 83% 29.94 in 10.0 mi SSE 3.5 mph - N/A   Clear
2:55 AM 62.6 °F 59.0 °F 88% 29.95 in 10.0 mi Calm Calm - N/A   Clear
3:15 AM 60.8 °F 57.2 °F 88% 29.95 in 8.0 mi Calm Calm - N/A   Scattered Clouds
3:35 AM 59.0 °F 57.2 °F 94% 29.95 in 9.0 mi Calm Calm - N/A   Mostly Cloudy
3:55 AM 59.0 °F 57.2 °F 94% 29.94 in 8.0 mi SSE 3.5 mph - N/A   Scattered Clouds
4:15 AM 59.0 °F 57.2 °F 94% 29.94 in 7.0 mi Calm Calm - N/A   Clear
4:35 AM 59.0 °F 57.2 °F 94% 29.95 in 7.0 mi Calm Calm - N/A   Mostly Cloudy
4:55 AM 60.8 °F 59.0 °F 94% 29.95 in 8.0 mi Calm Calm - N/A   Overcast
5:15 AM 60.8 °F 59.0 °F 94% 29.95 in 9.0 mi Calm Calm - N/A   Overcast
5:35 AM 60.8 °F 59.0 °F 94% 29.95 in 8.0 mi Calm Calm - N/A   Overcast
5:55 AM 60.8 °F 59.0 °F 94% 29.95 in 8.0 mi Calm Calm - N/A   Overcast
6:15 AM 60.8 °F 59.0 °F 94% 29.96 in 8.0 mi Calm Calm - N/A   Overcast
6:35 AM 60.8 °F 60.8 °F 100% 29.97 in 8.0 mi Calm Calm - N/A   Overcast
6:55 AM 60.8 °F 60.8 °F 100% 29.98 in 9.0 mi Calm Calm - N/A   Overcast
7:15 AM 62.6 °F 60.8 °F 94% 29.99 in 8.0 mi Calm Calm - N/A   Overcast
7:35 AM 60.8 °F 60.8 °F 100% 30.00 in 7.0 mi Calm Calm - N/A   Overcast
7:55 AM 60.8 °F 60.8 °F 100% 30.02 in 1.0 mi Calm Calm - N/A   Overcast
8:15 AM 60.8 °F 60.8 °F 100% 30.03 in 0.5 mi Calm Calm - N/A Fog Fog
8:35 AM 60.8 °F 60.8 °F 100% 30.03 in 0.5 mi Calm Calm - N/A Fog Fog
8:55 AM 60.8 °F 60.8 °F 100% 30.03 in 0.5 mi Calm Calm - N/A Fog Fog
9:15 AM 62.6 °F 62.6 °F 100% 30.03 in 0.5 mi Calm Calm - N/A Fog Fog
9:35 AM 62.6 °F 62.6 °F 100% 30.05 in 1.5 mi SSE 3.5 mph - N/A   Overcast
9:55 AM 62.6 °F 62.6 °F 100% 30.05 in 3.0 mi Calm Calm - N/A   Overcast
10:15 AM 64.4 °F 64.4 °F 100% 30.04 in 4.0 mi SE 6.9 mph - N/A   Overcast
10:35 AM 64.4 °F 64.4 °F 100% 30.04 in 8.0 mi SE 4.6 mph - N/A   Overcast
10:55 AM 66.2 °F 64.4 °F 94% 30.04 in 10.0 mi SSE 3.5 mph - N/A   Overcast
11:15 AM 68.0 °F 64.4 °F 88% 30.04 in 8.0 mi SSE 4.6 mph - N/A   Overcast
11:35 AM 68.0 °F 62.6 °F 83% 30.04 in 10.0 mi South 5.8 mph - N/A   Overcast
11:55 AM 69.8 °F 64.4 °F 83% 30.03 in 8.0 mi South 5.8 mph - N/A   Mostly Cloudy
12:15 PM 69.8 °F 62.6 °F 78% 30.03 in 8.0 mi South 3.5 mph - N/A   Scattered Clouds
12:35 PM 71.6 °F 62.6 °F 73% 30.02 in 8.0 mi ENE 3.5 mph - N/A   Mostly Cloudy
12:55 PM 69.8 °F 62.6 °F 78% 30.02 in 8.0 mi South 3.5 mph - N/A   Mostly Cloudy
1:15 PM 71.6 °F 62.6 °F 73% 30.02 in 8.0 mi South 3.5 mph - N/A   Mostly Cloudy
1:35 PM 73.4 °F 62.6 °F 69% 30.01 in 9.0 mi SW 4.6 mph - N/A   Mostly Cloudy
1:55 PM 71.6 °F 62.6 °F 73% 30.00 in 8.0 mi Calm Calm - N/A   Overcast
2:15 PM 71.6 °F 64.4 °F 78% 29.99 in 8.0 mi Calm Calm - N/A   Overcast
2:35 PM 73.4 °F 62.6 °F 69% 29.98 in 9.0 mi SW 3.5 mph - N/A   Mostly Cloudy
2:55 PM 73.4 °F 64.4 °F 73% 29.97 in 9.0 mi West 4.6 mph - N/A   Mostly Cloudy
3:15 PM 73.4 °F 64.4 °F 73% 29.97 in 9.0 mi WSW 5.8 mph - N/A   Overcast
3:35 PM 73.4 °F 64.4 °F 73% 29.96 in 9.0 mi NW 6.9 mph - N/A   Scattered Clouds
3:55 PM 71.6 °F 64.4 °F 78% 29.96 in 8.0 mi NNW 9.2 mph - N/A   Mostly Cloudy
4:15 PM 71.6 °F 64.4 °F 78% 29.97 in 7.0 mi NW 5.8 mph - N/A   Overcast
4:35 PM 71.6 °F 64.4 °F 78% 29.96 in 7.0 mi NNW 8.1 mph - N/A   Mostly Cloudy
4:55 PM 71.6 °F 64.4 °F 78% 29.96 in 7.0 mi NNW 5.8 mph - N/A   Scattered Clouds
5:15 PM 71.6 °F 64.4 °F 78% 29.95 in 7.0 mi NNW 5.8 mph - N/A   Mostly Cloudy
5:35 PM 71.6 °F 64.4 °F 78% 29.95 in 7.0 mi NNW 5.8 mph - N/A   Mostly Cloudy
5:55 PM 69.8 °F 62.6 °F 78% 29.96 in 7.0 mi NNW 9.2 mph - N/A   Mostly Cloudy
6:15 PM 68.0 °F 62.6 °F 83% 29.96 in 7.0 mi NW 8.1 mph - N/A   Mostly Cloudy
6:35 PM 66.2 °F 60.8 °F 83% 29.97 in 6.0 mi NNW 6.9 mph - N/A   Haze
6:55 PM 64.4 °F 60.8 °F 88% 29.98 in 7.0 mi NW 8.1 mph - N/A   Overcast
7:15 PM 64.4 °F 59.0 °F 83% 29.99 in 6.0 mi WNW 6.9 mph - N/A   Haze
7:35 PM 64.4 °F 59.0 °F 83% 29.98 in 7.0 mi NW 6.9 mph - N/A   Overcast
7:55 PM 62.6 °F 59.0 °F 88% 29.98 in 7.0 mi NNW 4.6 mph - N/A   Overcast
8:15 PM 62.6 °F 57.2 °F 82% 29.99 in 8.0 mi NW 4.6 mph - N/A   Overcast
8:35 PM 62.6 °F 57.2 °F 82% 30.00 in 8.0 mi WNW 6.9 mph - N/A   Overcast
8:55 PM 62.6 °F 55.4 °F 77% 30.01 in 10.0 mi NNW 8.1 mph - N/A   Overcast
9:15 PM 60.8 °F 51.8 °F 72% 30.01 in 10.0 mi North 8.1 mph - N/A   Overcast
9:35 PM 60.8 °F 51.8 °F 72% 30.02 in 10.0 mi North 10.4 mph - N/A   Overcast
9:55 PM 60.8 °F 51.8 °F 72% 30.03 in 10.0 mi North 8.1 mph - N/A   Mostly Cloudy
10:15 PM 60.8 °F 51.8 °F 72% 30.03 in 10.0 mi North 5.8 mph - N/A   Mostly Cloudy
10:35 PM 60.8 °F 51.8 °F 72% 30.04 in 10.0 mi NNW 8.1 mph - N/A   Overcast
10:55 PM 60.8 °F 51.8 °F 72% 30.05 in 10.0 mi North 8.1 mph - N/A   Overcast
11:15 PM 59.0 °F 51.8 °F 77% 30.05 in 10.0 mi North 4.6 mph - N/A   Overcast
11:35 PM 57.2 °F 53.6 °F 88% 30.06 in 7.0 mi NW 5.8 mph - N/A   Overcast
11:55 PM 55.4 °F 53.6 °F 94% 30.07 in 10.0 mi NNW 9.2 mph - N/A   Overcast